Wind_Speed
5 5 5 5 6 6 5 6 7 7 7 7 8 9 9 10 10 8 8 8 8 8 8 9 10 10 10 10 10 10 10 10 10 11 11 12 13 12 13 14 13 13 13
5 5 6 6 6 7 7 7 7 8 8 8 9 9 9 9 10 9 9 9 9 9 10 10 11 11 11 11 11 11 11 11 11 12 13 14 14 14 14 14 15 14 14
5 5 6 7 7 8 8 8 8 9 9 9 9 10 9 9 9 9 9 9 10 10 10 11 12 12 12 12 12 13 13 12 13 14 14 15 15 15 15 15 15 14 14
7 7 7 8 8 9 9 9 9 10 10 10 10 10 10 10 10 10 10 10 10 11 11 11 12 12 12 12 13 13 13 13 14 15 15 16 16 16 16 16 16 15 14
8 8 8 9 10 10 10 10 10 11 11 11 11 11 11 11 11 12 12 12 12 12 11 12 12 12 13 13 14 14 14 14 15 16 16 16 17 16 16 16 16 16 15
9 10 10 11 11 11 12 12 12 12 12 12 13 13 13 13 13 14 14 14 14 13 12 12 12 13 13 14 15 15 15 16 16 17 17 17 17 17 17 17 16 17 16
11 12 12 12 12 12 12 13 13 13 13 13 14 14 14 15 15 15 16 16 15 14 14 14 14 14 14 15 15 16 16 17 17 17 18 18 17 17 17 17 17 18 18
11 12 12 12 13 13 13 14 14 14 14 15 15 15 15 15 15 16 17 17 16 15 16 15 15 15 15 15 16 17 17 18 18 18 19 19 18 18 19 19 20 20 20
12 12 13 13 14 15 15 16 15 16 16 16 16 16 17 17 17 17 17 17 16 16 16 17 16 16 16 16 17 17 18 19 20 20 20 20 20 20 20 20 21 21 20
13 14 14 15 15 16 17 17 17 17 17 17 18 18 18 18 18 18 17 17 17 17 18 18 18 18 18 18 18 19 19 20 21 21 21 21 21 21 21 22 21 21 22
14 15 16 16 16 17 18 18 18 18 18 19 20 20 19 19 19 19 18 18 18 19 19 19 20 20 21 21 20 21 21 22 22 23 23 22 22 23 23 23 23 22 22
16 17 17 17 18 19 19 19 19 20 20 20 21 22 21 20 20 20 20 19 19 20 21 21 22 22 22 23 22 23 23 22 23 23 23 23 23 24 24 24 25 24 23
17 18 19 19 20 20 20 20 20 21 22 22 23 23 23 22 22 21 21 21 21 21 22 22 22 23 24 24 23 23 23 23 23 24 24 25 25 24 25 25 24 24 24
18 18 19 20 21 21 21 21 21 22 22 24 24 24 23 23 22 22 23 22 22 22 23 24 23 24 25 25 24 24 23 24 24 24 24 24 25 25 24 25 24 24 24
20 20 20 21 21 21 21 22 23 24 24 25 25 25 24 24 24 24 25 25 24 24 24 25 25 26 26 26 26 25 25 25 24 25 25 25 24 24 24 25 25 24 24
21 22 22 22 22 23 23 24 25 25 25 26 26 25 25 26 26 25 26 26 27 27 26 27 27 27 27 27 27 27 27 26 25 25 25 24 24 24 24 24 25 25 25
23 23 24 24 25 25 26 26 26 26 26 26 26 26 26 27 27 27 27 27 28 28 28 28 28 28 28 29 28 27 27 27 26 26 25 25 24 24 24 24 24 24 24
24 25 25 26 26 27 27 28 28 28 28 27 27 28 27 28 29 29 29 29 29 29 29 30 29 29 28 28 28 29 29 28 27 26 26 26 25 25 24 24 24 24 24
26 26 27 27 28 28 29 29 30 29 30 30 29 29 29 29 29 29 30 30 31 31 31 31 29 29 28 29 29 29 29 28 27 27 27 27 26 25 25 24 23 23 24
27 28 29 29 30 30 30 30 31 31 31 30 30 30 30 30 30 30 31 32 31 31 31 30 29 30 29 29 29 28 28 28 27 26 26 26 26 24 24 24 25 24 24
29 30 30 31 31 31 31 30 31 31 31 31 31 31 31 31 31 31 31 32 31 31 31 30 29 29 29 29 28 28 27 27 27 27 26 26 25 24 23 23 24 24 24
31 32 32 32 32 32 32 32 33 32 32 32 32 31 31 32 31 31 32 32 32 32 31 31 30 29 29 29 28 27 28 27 27 27 27 26 25 24 24 23 23 24 24
33 32 33 33 33 33 33 33 32 32 33 33 34 33 32 32 33 32 32 32 32 31 31 30 30 30 29 29 28 28 28 28 27 27 26 26 25 25 24 23 23 24 24
33 33 33 33 33 33 34 34 34 34 34 35 34 34 33 34 34 34 33 33 32 32 31 31 30 30 29 29 29 28 28 27 25 25 25 25 24 24 23 23 23 23 23
33 34 34 35 34 34 35 35 35 35 35 35 35 35 35 35 36 35 33 33 33 32 31 31 30 30 30 29 28 27 27 26 26 25 25 24 23 23 23 23 23 23 23
35 35 36 36 36 35 35 35 35 36 36 36 35 35 35 35 35 35 33 33 33 32 31 31 30 29 29 28 27 27 27 27 26 25 25 25 24 24 24 23 23 23 23
Wind_Direction
333 336 338 334 330 324 320 320 315 311 311 315 319 319 315 309 306 304 308 307 306 301 293 291 291 291 288 284 282 283 280 281 283 283 285 286 286 287 290 293 289 288 285
330 329 334 341 336 330 326 327 320 319 312 313 312 315 315 310 308 303 303 306 304 299 296 297 297 296 290 286 285 283 283 282 284 287 286 287 289 287 289 291 290 287 284
319 321 323 326 328 328 329 329 325 320 317 315 313 314 312 310 309 309 305 301 300 300 300 297 294 294 297 291 289 293 288 287 286 287 288 289 289 289 288 289 288 286 284
312 316 318 320 320 322 323 321 321 320 320 321 319 315 312 311 309 307 308 304 301 301 300 299 299 298 296 296 293 290 290 287 288 288 288 286 285 285 286 288 289 287 284
310 313 316 316 316 315 314 313 314 316 315 316 315 313 310 309 306 309 309 311 307 305 304 303 301 298 295 292 293 293 293 293 291 291 291 288 284 282 284 285 288 288 286
307 308 309 309 312 313 311 310 312 313 311 310 309 307 306 306 303 304 308 309 309 306 305 301 299 299 296 293 292 292 292 292 291 290 290 291 286 282 283 284 286 286 285
303 304 306 307 309 311 311 309 308 310 309 308 306 306 304 304 305 304 306 307 306 306 303 301 300 299 297 294 292 292 292 290 291 290 291 292 289 285 285 285 285 286 286
302 302 302 303 306 308 309 307 307 307 307 306 305 303 304 301 299 300 301 303 303 303 303 300 300 299 297 295 294 292 291 291 291 290 291 292 291 288 286 286 283 284 285
302 300 300 301 303 305 307 306 306 306 305 306 305 302 302 301 296 297 297 297 296 297 299 302 301 299 298 297 296 293 292 291 290 287 286 288 289 288 288 290 288 286 285
303 301 300 300 301 304 306 306 304 304 304 303 302 301 301 300 298 298 298 297 294 294 295 297 297 297 296 297 298 295 293 292 289 286 286 286 287 288 288 288 289 287 286
306 305 302 300 299 302 304 304 304 302 302 302 300 299 300 298 297 298 298 296 294 293 294 296 296 297 294 294 295 295 294 291 288 286 284 284 285 286 286 286 286 286 285
306 306 304 299 299 299 300 301 303 303 302 301 301 300 299 299 297 298 298 297 296 295 294 295 296 296 297 293 292 292 291 290 288 286 284 284 285 285 285 283 283 283 282
306 307 306 302 301 302 301 301 302 302 300 300 302 301 300 300 297 297 296 296 295 294 294 295 295 294 295 294 291 292 291 290 289 287 286 284 283 284 283 281 281 282 279
306 306 305 303 302 302 301 301 302 303 300 299 300 301 300 299 297 296 295 295 295 294 294 293 292 292 293 291 290 292 293 293 291 288 287 286 284 282 282 281 279 280 279
305 307 307 307 305 304 302 300 301 302 301 299 299 300 299 297 296 295 294 294 294 294 294 293 292 292 290 289 290 293 293 293 292 291 287 286 287 284 282 281 279 278 278
304 305 305 306 306 305 303 302 301 301 300 300 299 296 296 295 294 294 293 292 292 293 295 294 292 291 290 288 289 291 292 291 292 292 291 290 288 285 283 282 278 277 276
302 303 304 306 305 304 303 301 301 301 301 301 299 296 293 293 294 293 293 292 292 292 295 293 292 291 289 288 288 287 292 290 290 291 290 289 288 286 283 281 279 278 275
302 301 301 303 304 303 302 301 301 300 300 300 299 297 296 292 292 292 291 291 290 291 292 292 290 291 289 288 287 288 289 291 291 290 289 288 288 287 284 280 278 279 278
301 300 301 302 303 302 302 301 301 300 299 298 297 296 296 294 292 292 291 290 288 289 290 291 290 290 288 287 287 289 290 290 289 288 288 287 289 288 285 282 280 280 279
300 300 301 301 302 301 301 300 299 299 298 298 297 295 295 295 292 291 291 290 289 290 291 291 291 291 289 287 287 289 289 289 289 289 290 289 289 288 286 284 283 280 280
299 300 301 302 302 301 301 301 300 299 298 296 296 295 294 293 293 292 293 291 291 291 290 291 291 291 290 288 289 288 288 289 289 288 289 290 289 287 284 282 282 281 281
298 299 300 300 300 300 300 299 299 298 298 297 296 295 295 293 293 293 294 293 290 290 290 290 289 289 290 289 289 287 286 287 287 287 287 287 287 286 285 285 284 282 283
298 299 299 299 300 300 300 299 299 298 298 297 296 294 294 294 294 293 292 293 291 290 290 290 289 288 288 288 287 287 285 284 284 285 285 285 284 285 285 285 285 284 284
299 300 300 301 301 300 299 298 297 296 298 298 296 295 293 292 291 292 292 292 290 289 290 290 289 289 287 285 284 284 284 283 282 282 283 282 281 282 282 283 284 283 282
299 299 301 301 300 300 299 298 297 297 297 298 297 296 293 290 290 290 289 289 289 288 289 288 288 288 287 285 282 282 281 281 281 282 281 281 280 281 281 283 282 282 281
299 300 301 301 301 300 300 300 298 298 297 297 296 295 293 292 290 289 289 288 286 285 285 285 286 286 285 283 282 282 282 280 280 281 280 281 280 280 279 281 283 284 282
Height
5893 5892 5891 5891 5890 5890 5889 5888 5888 5886 5886 5886 5885 5884 5884 5883 5883 5882 5882 5882 5881 5881 5880 5880 5879 5879 5879 5878 5878 5877 5877 5877 5877 5877 5877 5877 5877 5877 5876 5876 5876 5875 5875
5893 5892 5891 5890 5890 5889 5888 5887 5887 5885 5885 5884 5884 5883 5882 5881 5881 5881 5880 5880 5879 5879 5878 5878 5877 5877 5876 5876 5875 5875 5874 5874 5874 5874 5874 5874 5874 5873 5873 5873 5872 5872 5871
5892 5892 5891 5890 5890 5888 5887 5886 5886 5885 5884 5883 5882 5882 5881 5880 5879 5878 5878 5878 5877 5877 5876 5875 5875 5874 5873 5872 5872 5872 5871 5871 5871 5871 5871 5870 5870 5870 5869 5869 5868 5868 5867
5892 5891 5890 5890 5889 5888 5887 5886 5885 5884 5883 5882 5881 5880 5879 5878 5878 5877 5876 5875 5875 5874 5873 5873 5872 5871 5870 5869 5869 5869 5868 5868 5868 5868 5867 5867 5866 5866 5865 5865 5864 5864 5863
5891 5890 5890 5889 5887 5887 5886 5884 5883 5882 5881 5880 5879 5878 5877 5877 5876 5875 5874 5873 5872 5871 5870 5870 5869 5868 5867 5867 5866 5865 5865 5864 5864 5864 5863 5862 5862 5861 5861 5861 5860 5860 5859
5890 5889 5888 5887 5886 5885 5884 5883 5882 5880 5879 5878 5877 5876 5875 5874 5873 5873 5871 5870 5869 5868 5867 5867 5866 5865 5864 5863 5862 5862 5861 5860 5860 5859 5858 5858 5857 5857 5856 5856 5856 5855 5855
5888 5887 5886 5885 5884 5883 5882 5880 5879 5878 5877 5876 5875 5873 5873 5872 5870 5869 5868 5867 5866 5865 5864 5863 5862 5861 5860 5859 5859 5858 5857 5856 5855 5855 5854 5853 5852 5852 5852 5851 5851 5850 5850
5886 5885 5884 5883 5882 5881 5879 5878 5876 5875 5874 5873 5872 5870 5869 5869 5867 5866 5865 5864 5862 5862 5860 5859 5858 5857 5856 5855 5855 5854 5852 5852 5851 5850 5849 5849 5848 5847 5847 5846 5845 5845 5844
5884 5883 5882 5881 5880 5879 5877 5875 5874 5872 5871 5870 5868 5867 5866 5865 5864 5863 5861 5860 5859 5858 5857 5855 5854 5853 5852 5851 5850 5849 5848 5847 5846 5845 5844 5844 5843 5842 5841 5841 5840 5839 5838
5881 5880 5879 5878 5877 5875 5874 5872 5870 5869 5868 5866 5864 5863 5862 5860 5859 5859 5858 5856 5855 5853 5852 5851 5850 5848 5848 5847 5845 5844 5843 5842 5840 5839 5839 5838 5838 5837 5836 5835 5834 5833 5833
5878 5877 5876 5875 5873 5872 5870 5868 5866 5865 5863 5862 5861 5859 5857 5856 5854 5854 5853 5851 5850 5849 5848 5847 5845 5844 5843 5841 5840 5839 5838 5836 5835 5834 5833 5832 5831 5831 5830 5829 5828 5827 5826
5875 5873 5872 5871 5869 5868 5866 5864 5863 5861 5859 5858 5856 5855 5853 5851 5850 5848 5847 5845 5845 5844 5842 5841 5840 5839 5837 5835 5834 5833 5831 5830 5829 5827 5826 5826 5825 5824 5823 5822 5821 5820 5819
5871 5870 5868 5866 5865 5863 5861 5860 5858 5856 5854 5853 5851 5849 5848 5846 5845 5843 5842 5841 5839 5838 5837 5836 5834 5833 5831 5829 5828 5827 5825 5824 5822 5821 5820 5819 5818 5817 5816 5815 5814 5813 5812
5867 5866 5864 5862 5860 5859 5857 5855 5853 5851 5850 5848 5846 5844 5842 5840 5839 5837 5836 5835 5834 5833 5831 5830 5828 5826 5824 5823 5822 5820 5818 5817 5816 5814 5813 5812 5811 5809 5809 5808 5807 5806 5805
5863 5862 5860 5858 5856 5854 5852 5850 5848 5846 5844 5842 5840 5838 5837 5835 5834 5832 5830 5829 5828 5826 5825 5823 5822 5820 5817 5816 5815 5814 5812 5810 5809 5808 5806 5805 5803 5802 5801 5800 5800 5799 5798
5860 5858 5856 5854 5851 5849 5847 5845 5843 5841 5839 5837 5835 5833 5831 5829 5827 5826 5824 5822 5820 5819 5817 5816 5814 5813 5811 5810 5808 5807 5806 5804 5802 5801 5800 5798 5797 5796 5794 5793 5793 5792 5791
5855 5853 5851 5849 5846 5844 5842 5839 5837 5835 5832 5830 5828 5826 5824 5823 5821 5819 5817 5815 5813 5811 5810 5809 5807 5805 5804 5802 5801 5800 5799 5797 5796 5794 5793 5791 5790 5789 5788 5787 5786 5785 5785
5850 5848 5846 5844 5841 5838 5836 5833 5831 5828 5826 5824 5822 5819 5818 5815 5814 5812 5810 5808 5806 5804 5802 5801 5799 5798 5796 5795 5794 5793 5791 5790 5789 5787 5786 5784 5783 5782 5781 5780 5779 5779 5778
5845 5843 5841 5838 5835 5832 5829 5827 5824 5822 5819 5817 5815 5813 5810 5808 5806 5804 5802 5800 5798 5796 5795 5793 5791 5790 5789 5787 5786 5785 5783 5782 5781 5780 5779 5777 5776 5775 5774 5773 5772 5772 5772
5839 5837 5834 5831 5828 5825 5822 5820 5817 5814 5812 5810 5807 5805 5803 5801 5798 5796 5794 5792 5790 5788 5787 5785 5784 5782 5781 5780 5779 5778 5776 5775 5774 5773 5772 5770 5770 5769 5767 5766 5766 5766 5765
5832 5830 5827 5824 5821 5818 5815 5812 5809 5807 5805 5802 5800 5797 5795 5793 5790 5788 5786 5784 5782 5780 5779 5777 5776 5775 5773 5772 5771 5770 5769 5768 5767 5765 5764 5763 5762 5761 5760 5760 5759 5759 5758
5825 5823 5820 5817 5813 5810 5808 5805 5802 5799 5797 5794 5792 5790 5787 5785 5782 5780 5778 5776 5774 5772 5770 5769 5768 5766 5765 5764 5763 5762 5761 5760 5759 5758 5756 5756 5755 5754 5753 5752 5752 5752 5751
5818 5815 5812 5809 5805 5803 5800 5797 5794 5791 5789 5787 5784 5781 5778 5776 5773 5771 5769 5768 5766 5764 5763 5761 5759 5758 5757 5755 5754 5753 5752 5751 5751 5750 5749 5748 5748 5747 5746 5745 5745 5745 5744
5810 5807 5803 5800 5797 5795 5792 5789 5786 5783 5780 5777 5775 5772 5770 5767 5764 5763 5761 5759 5757 5755 5754 5752 5751 5750 5748 5747 5746 5745 5744 5743 5743 5742 5741 5741 5740 5740 5739 5739 5738 5738 5737
5801 5798 5795 5792 5789 5786 5783 5780 5776 5774 5771 5768 5765 5763 5760 5758 5755 5753 5752 5750 5748 5747 5745 5744 5742 5741 5740 5739 5737 5737 5736 5735 5735 5735 5734 5733 5733 5733 5732 5732 5731 5730 5730
5793 5790 5787 5783 5780 5777 5774 5770 5767 5764 5762 5759 5756 5753 5750 5748 5746 5743 5742 5740 5739 5738 5736 5735 5734 5733 5731 5730 5729 5729 5728 5727 5727 5727 5726 5726 5725 5725 5725 5725 5724 5723 5723